Time,TemperatureF,DewpointF,PressureIn,WindDirection,WindDirectionDegrees,WindSpeedMPH,WindSpeedGustMPH,Humidity,HourlyPrecipIn,Conditions,Clouds,dailyrainin,SoftwareType,DateUTC
2013-02-17 00:00:00,27.4,19.6,29.73,North,355,2.0,6.0,72,0.00,,,0.00,Wunderground v.1.13,2013-02-17 05:00:00,
2013-02-17 00:10:00,27.0,19.5,29.71,NNW,346,3.0,3.0,73,0.00,,,0.00,Wunderground v.1.13,2013-02-17 05:10:00,
2013-02-17 00:15:00,26.8,19.3,29.70,North,355,3.0,6.0,73,0.00,,,0.00,Wunderground v.1.13,2013-02-17 05:15:00,
2013-02-17 00:20:00,26.6,19.7,29.70,NNW,346,3.0,6.0,75,0.00,,,0.00,Wunderground v.1.13,2013-02-17 05:20:00,
2013-02-17 00:25:00,26.5,20.0,29.70,NNW,346,3.0,6.0,76,0.00,,,0.00,Wunderground v.1.13,2013-02-17 05:25:00,
2013-02-17 00:35:00,26.2,20.0,29.70,North,355,2.0,6.0,77,0.00,,,0.00,Wunderground v.1.13,2013-02-17 05:35:00,
2013-02-17 00:40:00,26.0,20.1,29.70,North,350,3.0,6.0,78,0.00,,,0.00,Wunderground v.1.13,2013-02-17 05:40:00,
2013-02-17 00:45:00,25.8,19.9,29.70,North,355,3.0,3.0,78,0.00,,,0.00,Wunderground v.1.13,2013-02-17 05:45:00,
2013-02-17 00:50:00,25.6,20.0,29.69,NNW,345,3.0,3.0,79,0.00,,,0.00,Wunderground v.1.13,2013-02-17 05:50:00,
2013-02-17 01:00:00,25.3,20.0,29.72,North,360,2.0,2.0,80,0.00,,,0.00,Wunderground v.1.13,2013-02-17 06:00:00,
2013-02-17 01:05:00,25.2,19.9,29.72,North,0,0.0,3.0,80,0.00,,,0.00,Wunderground v.1.13,2013-02-17 06:05:00,
2013-02-17 01:15:00,24.9,19.6,29.71,North,355,2.0,2.0,80,0.00,,,0.00,Wunderground v.1.13,2013-02-17 06:15:00,
2013-02-17 01:25:00,24.7,19.1,29.70,North,355,1.0,1.0,79,0.00,,,0.00,Wunderground v.1.13,2013-02-17 06:25:00,
2013-02-17 01:30:00,24.5,18.6,29.70,North,355,2.0,2.0,78,0.00,,,0.00,Wunderground v.1.13,2013-02-17 06:30:00,
2013-02-17 01:35:00,24.4,18.5,29.69,North,349,2.0,2.0,78,0.00,,,0.00,Wunderground v.1.13,2013-02-17 06:35:00,
2013-02-17 01:40:00,24.3,18.1,29.68,NNW,348,1.0,1.0,77,0.00,,,0.00,Wunderground v.1.13,2013-02-17 06:40:00,
2013-02-17 01:50:00,24.1,17.6,29.68,North,360,3.0,3.0,76,0.00,,,0.00,Wunderground v.1.13,2013-02-17 06:50:00,
2013-02-17 01:55:00,24.0,17.2,29.68,North,360,3.0,3.0,75,0.00,,,0.00,Wunderground v.1.13,2013-02-17 06:55:00,
2013-02-17 02:00:00,23.9,16.8,29.67,North,360,2.0,5.0,74,0.00,,,0.00,Wunderground v.1.13,2013-02-17 07:00:00,
2013-02-17 02:10:00,23.8,16.1,29.67,NW,313,2.0,2.0,72,0.00,,,0.00,Wunderground v.1.13,2013-02-17 07:10:00,
2013-02-17 02:15:00,23.7,16.0,29.68,NNW,348,2.0,2.0,72,0.00,,,0.00,Wunderground v.1.13,2013-02-17 07:15:00,
2013-02-17 02:20:00,23.6,15.9,29.68,NNW,343,2.0,5.0,72,0.00,,,0.00,Wunderground v.1.13,2013-02-17 07:20:00,
2013-02-17 02:25:00,23.5,15.5,29.67,NNW,331,3.0,5.0,71,0.00,,,0.00,Wunderground v.1.13,2013-02-17 07:25:00,
2013-02-17 02:30:00,23.4,15.4,29.67,North,10,3.0,7.0,71,0.00,,,0.00,Wunderground v.1.13,2013-02-17 07:30:00,
2013-02-17 02:40:00,23.3,15.0,29.67,NNW,345,2.0,2.0,70,0.00,,,0.00,Wunderground v.1.13,2013-02-17 07:40:00,
2013-02-17 02:45:00,23.3,14.6,29.67,NNW,346,1.0,1.0,69,0.00,,,0.00,Wunderground v.1.13,2013-02-17 07:45:00,
2013-02-17 02:50:00,23.3,14.6,29.67,NNW,348,1.0,3.0,69,0.00,,,0.00,Wunderground v.1.13,2013-02-17 07:50:00,
2013-02-17 02:55:00,23.3,14.6,29.66,North,349,2.0,2.0,69,0.00,,,0.00,Wunderground v.1.13,2013-02-17 07:55:00,
2013-02-17 03:05:00,23.3,15.0,29.65,NNW,348,2.0,4.0,70,0.00,,,0.00,Wunderground v.1.13,2013-02-17 08:05:00,
2013-02-17 03:10:00,23.2,14.5,29.64,NNW,337,2.0,2.0,69,0.00,,,0.00,Wunderground v.1.13,2013-02-17 08:10:00,
2013-02-17 03:15:00,23.2,14.5,29.63,NNW,341,3.0,4.0,69,0.00,,,0.00,Wunderground v.1.13,2013-02-17 08:15:00,
2013-02-17 03:25:00,23.0,16.6,29.63,North,355,3.0,3.0,76,0.00,,,0.00,Wunderground v.1.13,2013-02-17 08:25:00,
2013-02-17 03:30:00,22.9,15.2,29.63,North,355,3.0,3.0,72,0.00,,,0.00,Wunderground v.1.13,2013-02-17 08:30:00,
2013-02-17 03:35:00,22.7,15.3,29.64,NNW,344,2.0,2.0,73,0.00,,,0.00,Wunderground v.1.13,2013-02-17 08:35:00,
2013-02-17 03:40:00,22.5,15.8,29.64,North,349,3.0,3.0,75,0.00,,,0.00,Wunderground v.1.13,2013-02-17 08:40:00,
2013-02-17 03:50:00,22.1,15.7,29.64,North,355,2.0,2.0,76,0.00,,,0.00,Wunderground v.1.13,2013-02-17 08:50:00,
2013-02-17 03:55:00,21.9,15.5,29.63,NNW,346,3.0,4.0,76,0.00,,,0.00,Wunderground v.1.13,2013-02-17 08:55:00,
2013-02-17 04:00:00,21.7,15.6,29.63,NNW,346,3.0,3.0,77,0.00,,,0.00,Wunderground v.1.13,2013-02-17 09:00:00,
2013-02-17 04:05:00,21.5,15.4,29.63,North,349,2.0,3.0,77,0.00,,,0.00,Wunderground v.1.13,2013-02-17 09:05:00,
2013-02-17 04:10:00,21.4,15.3,29.62,NNW,333,3.0,5.0,77,0.00,,,0.00,Wunderground v.1.13,2013-02-17 09:10:00,
2013-02-17 04:20:00,21.3,15.5,29.62,NNW,333,2.0,2.0,78,0.00,,,0.00,Wunderground v.1.13,2013-02-17 09:20:00,
2013-02-17 04:25:00,21.3,15.8,29.62,NW,326,2.0,3.0,79,0.00,,,0.00,Wunderground v.1.13,2013-02-17 09:25:00,
2013-02-17 04:30:00,21.2,15.7,29.62,NNW,331,3.0,3.0,79,0.00,,,0.00,Wunderground v.1.13,2013-02-17 09:30:00,
2013-02-17 04:40:00,20.9,15.7,29.61,NNW,334,4.0,4.0,80,0.00,,,0.00,Wunderground v.1.13,2013-02-17 09:40:00,
2013-02-17 04:45:00,20.8,15.6,29.62,NNW,344,2.0,3.0,80,0.00,,,0.00,Wunderground v.1.13,2013-02-17 09:45:00,
2013-02-17 04:50:00,20.7,15.8,29.63,North,349,2.0,3.0,81,0.00,,,0.00,Wunderground v.1.13,2013-02-17 09:50:00,
2013-02-17 04:55:00,20.6,15.7,29.63,NNW,331,2.0,3.0,81,0.00,,,0.00,Wunderground v.1.13,2013-02-17 09:55:00,
2013-02-17 05:00:00,20.6,16.0,29.62,North,5,2.0,4.0,82,0.00,,,0.00,Wunderground v.1.13,2013-02-17 10:00:00,
2013-02-17 05:10:00,20.3,16.0,29.61,North,355,2.0,4.0,83,0.00,,,0.00,Wunderground v.1.13,2013-02-17 10:10:00,
2013-02-17 05:15:00,20.2,15.9,29.60,North,355,3.0,4.0,83,0.00,,,0.00,Wunderground v.1.13,2013-02-17 10:15:00,
2013-02-17 05:20:00,20.0,15.9,29.60,NNW,339,2.0,3.0,84,0.00,,,0.00,Wunderground v.1.13,2013-02-17 10:20:00,
2013-02-17 05:30:00,19.7,15.6,29.58,NNW,327,2.0,3.0,84,0.00,,,0.00,Wunderground v.1.13,2013-02-17 10:30:00,
2013-02-17 05:35:00,19.5,15.7,29.59,NW,311,2.0,2.0,85,0.00,,,0.00,Wunderground v.1.13,2013-02-17 10:35:00,
2013-02-17 05:40:00,19.3,15.5,29.60,NNE,18,2.0,4.0,85,0.00,,,0.00,Wunderground v.1.13,2013-02-17 10:40:00,
2013-02-17 05:45:00,19.1,15.6,29.60,NW,315,2.0,3.0,86,0.00,,,0.00,Wunderground v.1.13,2013-02-17 10:45:00,
2013-02-17 05:50:00,19.0,15.5,29.59,North,355,2.0,4.0,86,0.00,,,0.00,Wunderground v.1.13,2013-02-17 10:50:00,
2013-02-17 06:00:00,18.6,15.1,29.58,NNW,327,4.0,4.0,86,0.00,,,0.00,Wunderground v.1.13,2013-02-17 11:00:00,
2013-02-17 06:05:00,18.4,14.9,29.57,NNW,341,4.0,4.0,86,0.00,,,0.00,Wunderground v.1.13,2013-02-17 11:05:00,
2013-02-17 06:10:00,18.2,14.7,29.57,NNW,327,4.0,4.0,86,0.00,,,0.00,Wunderground v.1.13,2013-02-17 11:10:00,
2013-02-17 06:15:00,18.1,14.9,29.56,NNW,333,3.0,3.0,87,0.00,,,0.00,Wunderground v.1.13,2013-02-17 11:15:00,
2013-02-17 06:25:00,17.9,14.7,29.55,NNW,346,3.0,3.0,87,0.00,,,0.00,Wunderground v.1.13,2013-02-17 11:25:00,
2013-02-17 06:30:00,17.8,14.6,29.55,NNW,348,3.0,4.0,87,0.00,,,0.00,Wunderground v.1.13,2013-02-17 11:30:00,
2013-02-17 06:35:00,17.7,14.5,29.55,NNW,347,2.0,2.0,87,0.00,,,0.00,Wunderground v.1.13,2013-02-17 11:35:00,
2013-02-17 06:40:00,17.7,14.5,29.55,NNW,337,2.0,3.0,87,0.00,,,0.00,Wunderground v.1.13,2013-02-17 11:40:00,
2013-02-17 06:50:00,17.5,14.3,29.55,North,355,3.0,3.0,87,0.00,,,0.00,Wunderground v.1.13,2013-02-17 11:50:00,
2013-02-17 06:55:00,17.4,14.2,29.55,North,355,3.0,3.0,87,0.00,,,0.00,Wunderground v.1.13,2013-02-17 11:55:00,
2013-02-17 07:00:00,17.4,14.5,29.55,NW,326,3.0,3.0,88,0.00,,,0.00,Wunderground v.1.13,2013-02-17 12:00:00,
2013-02-17 07:05:00,17.3,14.1,29.54,NNW,338,2.0,3.0,87,0.00,,,0.00,Wunderground v.1.13,2013-02-17 12:05:00,
2013-02-17 07:15:00,17.2,14.3,29.53,NNW,342,3.0,3.0,88,0.00,,,0.00,Wunderground v.1.13,2013-02-17 12:15:00,
2013-02-17 07:20:00,17.2,14.3,29.53,North,351,3.0,3.0,88,0.00,,,0.00,Wunderground v.1.13,2013-02-17 12:20:00,
2013-02-17 07:25:00,17.1,14.2,29.53,NNW,344,3.0,3.0,88,0.00,,,0.00,Wunderground v.1.13,2013-02-17 12:25:00,
2013-02-17 07:35:00,17.0,14.1,29.53,NNW,340,3.0,3.0,88,0.00,,,0.00,Wunderground v.1.13,2013-02-17 12:35:00,
2013-02-17 07:40:00,17.0,14.1,29.52,SW,223,4.0,4.0,88,0.00,,,0.00,Wunderground v.1.13,2013-02-17 12:40:00,
2013-02-17 07:45:00,16.9,13.7,29.52,NNW,337,4.0,5.0,87,0.00,,,0.00,Wunderground v.1.13,2013-02-17 12:45:00,
2013-02-17 07:50:00,16.8,13.6,29.52,NNW,344,4.0,4.0,87,0.00,,,0.00,Wunderground v.1.13,2013-02-17 12:50:00,
2013-02-17 07:55:00,16.8,13.6,29.52,West,277,5.0,5.0,87,0.00,,,0.00,Wunderground v.1.13,2013-02-17 12:55:00,
2013-02-17 08:05:00,16.7,13.5,29.51,NW,317,5.0,5.0,87,0.00,,,0.00,Wunderground v.1.13,2013-02-17 13:05:00,
2013-02-17 08:10:00,16.7,13.5,29.50,WNW,303,4.0,4.0,87,0.00,,,0.00,Wunderground v.1.13,2013-02-17 13:10:00,
2013-02-17 08:15:00,16.7,13.5,29.50,North,355,3.0,5.0,87,0.00,,,0.00,Wunderground v.1.13,2013-02-17 13:15:00,
2013-02-17 08:20:00,16.7,13.5,29.50,North,360,5.0,13.0,87,0.00,,,0.00,Wunderground v.1.13,2013-02-17 13:20:00,
2013-02-17 08:25:00,16.7,13.5,29.49,North,350,5.0,5.0,87,0.00,,,0.00,Wunderground v.1.13,2013-02-17 13:25:00,
2013-02-17 08:35:00,16.7,13.5,29.49,NNW,340,4.0,5.0,87,0.00,,,0.00,Wunderground v.1.13,2013-02-17 13:35:00,
2013-02-17 08:40:00,16.7,13.2,29.49,North,355,5.0,10.0,86,0.00,,,0.00,Wunderground v.1.13,2013-02-17 13:40:00,
2013-02-17 08:45:00,16.7,13.2,29.48,WSW,240,5.0,5.0,86,0.00,,,0.00,Wunderground v.1.13,2013-02-17 13:45:00,
2013-02-17 08:50:00,16.7,13.2,29.47,NW,326,5.0,5.0,86,0.00,,,0.00,Wunderground v.1.13,2013-02-17 13:50:00,
2013-02-17 09:00:00,16.8,13.1,29.47,North,351,4.0,7.0,85,0.00,,,0.00,Wunderground v.1.13,2013-02-17 14:00:00,
2013-02-17 09:05:00,17.0,13.0,29.47,West,261,4.0,4.0,84,0.00,,,0.00,Wunderground v.1.13,2013-02-17 14:05:00,
2013-02-17 09:10:00,17.1,12.8,29.47,North,355,5.0,10.0,83,0.00,,,0.00,Wunderground v.1.13,2013-02-17 14:10:00,
2013-02-17 09:20:00,17.3,12.7,29.46,NNW,337,6.0,11.0,82,0.00,,,0.00,Wunderground v.1.13,2013-02-17 14:20:00,
2013-02-17 09:25:00,17.3,12.5,29.46,NNW,338,6.0,6.0,81,0.00,,,0.00,Wunderground v.1.13,2013-02-17 14:25:00,
2013-02-17 09:30:00,17.5,12.7,29.45,NNW,342,6.0,6.0,81,0.00,,,0.00,Wunderground v.1.13,2013-02-17 14:30:00,
2013-02-17 09:35:00,17.5,12.7,29.45,NNW,337,5.0,7.0,81,0.00,,,0.00,Wunderground v.1.13,2013-02-17 14:35:00,
2013-02-17 09:45:00,17.7,12.6,29.45,WNW,291,6.0,6.0,80,0.00,,,0.00,Wunderground v.1.13,2013-02-17 14:45:00,
2013-02-17 09:50:00,17.9,12.5,29.44,NNW,345,4.0,4.0,79,0.00,,,0.00,Wunderground v.1.13,2013-02-17 14:50:00,
2013-02-17 09:55:00,18.0,12.3,29.44,NNW,342,5.0,7.0,78,0.00,,,0.00,Wunderground v.1.13,2013-02-17 14:55:00,
2013-02-17 10:05:00,18.3,12.3,29.44,North,5,4.0,12.0,77,0.00,,,0.00,Wunderground v.1.13,2013-02-17 15:05:00,
2013-02-17 10:10:00,18.5,12.2,29.44,NNW,337,5.0,11.0,76,0.00,,,0.00,Wunderground v.1.13,2013-02-17 15:10:00,
2013-02-17 10:15:00,18.7,12.4,29.44,NNW,342,4.0,4.0,76,0.00,,,0.00,Wunderground v.1.13,2013-02-17 15:15:00,
2013-02-17 10:20:00,18.9,12.3,29.44,North,350,4.0,5.0,75,0.00,,,0.00,Wunderground v.1.13,2013-02-17 15:20:00,
2013-02-17 10:30:00,19.4,11.8,29.44,NNW,340,4.0,4.0,72,0.00,,,0.00,Wunderground v.1.13,2013-02-17 15:30:00,
2013-02-17 10:35:00,19.6,11.7,29.44,NW,304,4.0,4.0,71,0.00,,,0.00,Wunderground v.1.13,2013-02-17 15:35:00,
2013-02-17 10:40:00,19.9,11.7,29.44,WNW,283,5.0,5.0,70,0.00,,,0.00,Wunderground v.1.13,2013-02-17 15:40:00,
2013-02-17 10:45:00,20.1,11.9,29.44,NW,308,4.0,4.0,70,0.00,,,0.00,Wunderground v.1.13,2013-02-17 15:45:00,
2013-02-17 10:50:00,20.3,11.4,29.44,NNE,26,3.0,4.0,68,0.00,,,0.00,Wunderground v.1.13,2013-02-17 15:50:00,
2013-02-17 11:00:00,20.5,12.6,29.44,NNW,342,6.0,6.0,71,0.00,,,0.00,Wunderground v.1.13,2013-02-17 16:00:00,
2013-02-17 11:05:00,20.7,12.1,29.44,NNW,336,5.0,5.0,69,0.00,,,0.00,Wunderground v.1.13,2013-02-17 16:05:00,
2013-02-17 11:10:00,21.0,12.1,29.44,NW,324,4.0,12.0,68,0.00,,,0.00,Wunderground v.1.13,2013-02-17 16:10:00,
2013-02-17 11:15:00,21.2,11.9,29.44,North,349,5.0,5.0,67,0.00,,,0.00,Wunderground v.1.13,2013-02-17 16:15:00,
2013-02-17 11:25:00,21.6,11.6,29.44,NNW,331,5.0,5.0,65,0.00,,,0.00,Wunderground v.1.13,2013-02-17 16:25:00,
2013-02-17 11:30:00,21.8,11.8,29.44,North,360,4.0,7.0,65,0.00,,,0.00,Wunderground v.1.13,2013-02-17 16:30:00,
2013-02-17 11:35:00,22.1,11.4,29.44,NW,318,4.0,5.0,63,0.00,,,0.00,Wunderground v.1.13,2013-02-17 16:35:00,
2013-02-17 11:45:00,21.9,11.6,29.44,NW,325,7.0,11.0,64,0.00,,,0.00,Wunderground v.1.13,2013-02-17 16:45:00,
2013-02-17 11:50:00,21.8,10.8,29.44,NNW,345,6.0,6.0,62,0.00,,,0.00,Wunderground v.1.13,2013-02-17 16:50:00,
2013-02-17 11:55:00,21.8,10.8,29.44,NW,314,6.0,6.0,62,0.00,,,0.00,Wunderground v.1.13,2013-02-17 16:55:00,
2013-02-17 12:00:00,21.7,10.7,29.44,NNW,336,6.0,6.0,62,0.00,,,0.00,Wunderground v.1.13,2013-02-17 17:00:00,
2013-02-17 12:10:00,21.4,10.4,29.44,NW,324,6.0,6.0,62,0.00,,,0.00,Wunderground v.1.13,2013-02-17 17:10:00,
2013-02-17 12:15:00,21.3,9.9,29.44,North,355,5.0,11.0,61,0.00,,,0.00,Wunderground v.1.13,2013-02-17 17:15:00,
2013-02-17 12:20:00,21.3,9.9,29.44,North,355,4.0,9.0,61,0.00,,,0.00,Wunderground v.1.13,2013-02-17 17:20:00,
2013-02-17 12:25:00,21.2,9.5,29.44,North,360,6.0,6.0,60,0.00,,,0.00,Wunderground v.1.13,2013-02-17 17:25:00,
2013-02-17 12:30:00,21.1,9.0,29.44,NNW,348,7.0,7.0,59,0.00,,,0.00,Wunderground v.1.13,2013-02-17 17:30:00,
2013-02-17 12:40:00,20.8,10.2,29.44,NW,310,7.0,7.0,63,0.00,,,0.00,Wunderground v.1.13,2013-02-17 17:40:00,
2013-02-17 12:45:00,20.7,9.4,29.45,NNW,334,6.0,10.0,61,0.00,,,0.00,Wunderground v.1.13,2013-02-17 17:45:00,
2013-02-17 12:55:00,20.5,8.8,29.45,North,360,6.0,21.0,60,0.00,,,0.00,Wunderground v.1.13,2013-02-17 17:55:00,
2013-02-17 13:00:00,20.5,8.8,29.45,NNW,327,5.0,9.0,60,0.00,,,0.00,Wunderground v.1.13,2013-02-17 18:00:00,
2013-02-17 13:05:00,20.5,8.4,29.45,NW,309,5.0,8.0,59,0.00,,,0.00,Wunderground v.1.13,2013-02-17 18:05:00,
2013-02-17 13:10:00,20.6,8.5,29.45,North,355,5.0,5.0,59,0.00,,,0.00,Wunderground v.1.13,2013-02-17 18:10:00,
2013-02-17 13:20:00,20.6,8.1,29.45,North,10,5.0,5.0,58,0.00,,,0.00,Wunderground v.1.13,2013-02-17 18:20:00,
2013-02-17 13:25:00,20.6,8.1,29.45,NW,306,6.0,6.0,58,0.00,,,0.00,Wunderground v.1.13,2013-02-17 18:25:00,
2013-02-17 13:30:00,20.6,8.1,29.46,NW,308,5.0,5.0,58,0.00,,,0.00,Wunderground v.1.13,2013-02-17 18:30:00,
2013-02-17 13:35:00,20.4,8.0,29.45,North,0,7.0,22.0,58,0.00,,,0.00,Wunderground v.1.13,2013-02-17 18:35:00,
2013-02-17 13:40:00,20.2,7.8,29.47,NW,315,6.0,17.0,58,0.00,,,0.00,Wunderground v.1.13,2013-02-17 18:40:00,
2013-02-17 13:45:00,20.2,7.8,29.46,NNW,338,5.0,16.0,58,0.00,,,0.00,Wunderground v.1.13,2013-02-17 18:45:00,
2013-02-17 13:50:00,20.2,7.4,29.46,NW,315,4.0,18.0,57,0.00,,,0.00,Wunderground v.1.13,2013-02-17 18:50:00,
2013-02-17 13:55:00,20.3,7.9,29.47,NNW,338,4.0,13.0,58,0.00,,,0.00,Wunderground v.1.13,2013-02-17 18:55:00,
2013-02-17 14:00:00,20.3,7.9,29.47,North,0,4.0,19.0,58,0.00,,,0.00,Wunderground v.1.13,2013-02-17 19:00:00,
2013-02-17 14:05:00,20.4,7.2,29.47,North,0,5.0,21.0,56,0.00,,,0.00,Wunderground v.1.13,2013-02-17 19:05:00,
2013-02-17 14:10:00,20.4,7.6,29.48,North,0,6.0,21.0,57,0.00,,,0.00,Wunderground v.1.13,2013-02-17 19:10:00,
2013-02-17 14:15:00,20.3,9.3,29.48,North,0,7.0,22.0,62,0.00,,,0.00,Wunderground v.1.13,2013-02-17 19:15:00,
2013-02-17 14:20:00,20.2,10.0,29.48,North,0,6.0,22.0,64,0.00,,,0.00,Wunderground v.1.13,2013-02-17 19:20:00,
2013-02-17 14:25:00,20.3,9.0,29.48,North,0,7.0,19.0,61,0.00,,,0.00,Wunderground v.1.13,2013-02-17 19:25:00,
2013-02-17 14:30:00,20.3,8.2,29.48,North,0,7.0,24.0,59,0.00,,,0.00,Wunderground v.1.13,2013-02-17 19:30:00,
2013-02-17 14:35:00,20.3,8.6,29.48,North,0,9.0,25.0,60,0.00,,,0.00,Wunderground v.1.13,2013-02-17 19:35:00,
2013-02-17 14:40:00,20.2,8.1,29.49,North,0,5.0,16.0,59,0.00,,,0.00,Wunderground v.1.13,2013-02-17 19:40:00,
2013-02-17 14:45:00,20.2,7.8,29.48,WNW,293,4.0,14.0,58,0.00,,,0.00,Wunderground v.1.13,2013-02-17 19:45:00,
2013-02-17 14:50:00,20.3,10.4,29.48,NNW,338,5.0,18.0,65,0.00,,,0.00,Wunderground v.1.13,2013-02-17 19:50:00,
2013-02-17 14:55:00,20.2,10.3,29.49,North,0,5.0,20.0,65,0.00,,,0.00,Wunderground v.1.13,2013-02-17 19:55:00,
2013-02-17 15:00:00,20.2,9.2,29.49,NNW,338,8.0,23.0,62,0.00,,,0.00,Wunderground v.1.13,2013-02-17 20:00:00,
2013-02-17 15:05:00,20.2,8.5,29.49,NW,315,5.0,24.0,60,0.00,,,0.00,Wunderground v.1.13,2013-02-17 20:05:00,
2013-02-17 15:10:00,20.2,9.2,29.49,North,0,5.0,20.0,62,0.00,,,0.00,Wunderground v.1.13,2013-02-17 20:10:00,
2013-02-17 15:15:00,20.2,8.5,29.50,North,0,7.0,18.0,60,0.00,,,0.00,Wunderground v.1.13,2013-02-17 20:15:00,
2013-02-17 15:20:00,20.2,7.8,29.50,NNW,338,4.0,15.0,58,0.00,,,0.00,Wunderground v.1.13,2013-02-17 20:20:00,
2013-02-17 15:25:00,20.4,7.6,29.50,West,270,6.0,19.0,57,0.00,,,0.00,Wunderground v.1.13,2013-02-17 20:25:00,
2013-02-17 15:30:00,20.3,8.2,29.50,NNW,338,9.0,26.0,59,0.00,,,0.00,Wunderground v.1.13,2013-02-17 20:30:00,
2013-02-17 15:40:00,20.4,7.6,29.51,WSW,254,5.0,5.0,57,0.00,,,0.00,Wunderground v.1.13,2013-02-17 20:40:00,
2013-02-17 15:50:00,20.5,7.7,29.51,NNW,343,5.0,5.0,57,0.00,,,0.00,Wunderground v.1.13,2013-02-17 20:50:00,
2013-02-17 15:55:00,20.6,7.4,29.51,WNW,300,5.0,6.0,56,0.00,,,0.00,Wunderground v.1.13,2013-02-17 20:55:00,
2013-02-17 16:05:00,20.7,7.1,29.52,NW,314,6.0,12.0,55,0.00,,,0.00,Wunderground v.1.13,2013-02-17 21:05:00,
2013-02-17 16:10:00,20.8,6.7,29.52,NW,313,6.0,6.0,54,0.00,,,0.00,Wunderground v.1.13,2013-02-17 21:10:00,
2013-02-17 16:15:00,20.8,8.3,29.52,NNW,331,6.0,6.0,58,0.00,,,0.00,Wunderground v.1.13,2013-02-17 21:15:00,
2013-02-17 16:25:00,20.8,8.3,29.53,NNE,19,6.0,21.0,58,0.00,,,0.00,Wunderground v.1.13,2013-02-17 21:25:00,
2013-02-17 16:30:00,20.7,8.2,29.53,WSW,244,5.0,5.0,58,0.00,,,0.00,Wunderground v.1.13,2013-02-17 21:30:00,
2013-02-17 16:35:00,20.7,7.9,29.54,NW,326,6.0,6.0,57,0.00,,,0.00,Wunderground v.1.13,2013-02-17 21:35:00,
2013-02-17 16:40:00,20.7,7.5,29.54,WNW,292,6.0,6.0,56,0.00,,,0.00,Wunderground v.1.13,2013-02-17 21:40:00,
2013-02-17 16:50:00,20.7,7.5,29.54,WNW,297,4.0,4.0,56,0.00,,,0.00,Wunderground v.1.13,2013-02-17 21:50:00,
2013-02-17 16:55:00,20.7,7.5,29.54,NNW,337,4.0,17.0,56,0.00,,,0.00,Wunderground v.1.13,2013-02-17 21:55:00,
2013-02-17 17:00:00,20.7,7.1,29.55,NW,314,3.0,3.0,55,0.00,,,0.00,Wunderground v.1.13,2013-02-17 22:00:00,
2013-02-17 17:05:00,20.7,7.1,29.55,NNW,344,3.0,3.0,55,0.00,,,0.00,Wunderground v.1.13,2013-02-17 22:05:00,
2013-02-17 17:15:00,20.7,6.7,29.56,NNW,334,3.0,17.0,54,0.00,,,0.00,Wunderground v.1.13,2013-02-17 22:15:00,
2013-02-17 17:20:00,20.7,7.1,29.56,WNW,296,3.0,17.0,55,0.00,,,0.00,Wunderground v.1.13,2013-02-17 22:20:00,
2013-02-17 17:25:00,20.7,6.2,29.56,NNW,348,4.0,17.0,53,0.00,,,0.00,Wunderground v.1.13,2013-02-17 22:25:00,
2013-02-17 17:30:00,20.8,6.3,29.57,NNW,332,5.0,17.0,53,0.00,,,0.00,Wunderground v.1.13,2013-02-17 22:30:00,
2013-02-17 17:35:00,20.8,6.7,29.57,North,355,3.0,3.0,54,0.00,,,0.00,Wunderground v.1.13,2013-02-17 22:35:00,
2013-02-17 17:45:00,20.8,5.9,29.58,North,355,4.0,4.0,52,0.00,,,0.00,Wunderground v.1.13,2013-02-17 22:45:00,
2013-02-17 17:50:00,20.8,6.3,29.58,NW,319,4.0,4.0,53,0.00,,,0.00,Wunderground v.1.13,2013-02-17 22:50:00,
2013-02-17 17:55:00,20.8,5.9,29.59,North,355,4.0,17.0,52,0.00,,,0.00,Wunderground v.1.13,2013-02-17 22:55:00,
2013-02-17 18:05:00,20.7,5.8,29.59,NW,319,3.0,17.0,52,0.00,,,0.00,Wunderground v.1.13,2013-02-17 23:05:00,
2013-02-17 18:10:00,20.7,6.2,29.59,North,355,3.0,17.0,53,0.00,,,0.00,Wunderground v.1.13,2013-02-17 23:10:00,
2013-02-17 18:15:00,20.6,5.3,29.59,NW,309,5.0,5.0,51,0.00,,,0.00,Wunderground v.1.13,2013-02-17 23:15:00,
2013-02-17 18:20:00,20.6,5.7,29.59,WNW,291,5.0,5.0,52,0.00,,,0.00,Wunderground v.1.13,2013-02-17 23:20:00,
2013-02-17 18:30:00,20.6,5.3,29.59,North,355,4.0,4.0,51,0.00,,,0.00,Wunderground v.1.13,2013-02-17 23:30:00,
2013-02-17 18:35:00,20.5,4.8,29.59,West,267,5.0,5.0,50,0.00,,,0.00,Wunderground v.1.13,2013-02-17 23:35:00,
2013-02-17 18:40:00,20.4,4.7,29.59,North,351,5.0,5.0,50,0.00,,,0.00,Wunderground v.1.13,2013-02-17 23:40:00,
2013-02-17 18:45:00,20.4,5.1,29.59,ESE,112,4.0,17.0,51,0.00,,,0.00,Wunderground v.1.13,2013-02-17 23:45:00,
2013-02-17 18:50:00,20.3,5.0,29.59,NW,315,3.0,3.0,51,0.00,,,0.00,Wunderground v.1.13,2013-02-17 23:50:00,
2013-02-17 19:00:00,20.2,4.9,29.59,North,350,3.0,17.0,51,0.00,,,0.00,Wunderground v.1.13,2013-02-18 00:00:00,
2013-02-17 19:05:00,20.2,4.5,29.59,NW,322,5.0,5.0,50,0.00,,,0.00,Wunderground v.1.13,2013-02-18 00:05:00,
2013-02-17 19:10:00,20.1,4.8,29.59,NNW,334,6.0,6.0,51,0.00,,,0.00,Wunderground v.1.13,2013-02-18 00:10:00,
2013-02-17 19:20:00,20.0,5.2,29.60,SSW,199,6.0,6.0,52,0.00,,,0.00,Wunderground v.1.13,2013-02-18 00:20:00,
2013-02-17 19:25:00,19.9,6.3,29.59,NNW,338,8.0,8.0,55,0.00,,,0.00,Wunderground v.1.13,2013-02-18 00:25:00,
2013-02-17 19:30:00,19.8,5.8,29.59,WSW,240,7.0,7.0,54,0.00,,,0.00,Wunderground v.1.13,2013-02-18 00:30:00,
2013-02-17 19:35:00,19.7,4.5,29.60,NW,306,6.0,17.0,51,0.00,,,0.00,Wunderground v.1.13,2013-02-18 00:35:00,
2013-02-17 19:45:00,19.3,9.4,29.59,NNW,327,8.0,8.0,65,0.00,,,0.00,Wunderground v.1.13,2013-02-18 00:45:00,
2013-02-17 19:50:00,19.2,7.6,29.59,NNW,328,7.0,7.0,60,0.00,,,0.00,Wunderground v.1.13,2013-02-18 00:50:00,
2013-02-17 19:55:00,19.1,6.0,29.59,WNW,288,5.0,5.0,56,0.00,,,0.00,Wunderground v.1.13,2013-02-18 00:55:00,
2013-02-17 20:00:00,19.0,5.5,29.60,NNW,347,5.0,5.0,55,0.00,,,0.00,Wunderground v.1.13,2013-02-18 01:00:00,
2013-02-17 20:10:00,18.9,4.1,29.60,North,355,6.0,17.0,52,0.00,,,0.00,Wunderground v.1.13,2013-02-18 01:10:00,
2013-02-17 20:15:00,18.9,3.7,29.61,WNW,300,6.0,6.0,51,0.00,,,0.00,Wunderground v.1.13,2013-02-18 01:15:00,
2013-02-17 20:20:00,18.8,3.6,29.62,West,275,5.0,17.0,51,0.00,,,0.00,Wunderground v.1.13,2013-02-18 01:20:00,
2013-02-17 20:25:00,18.8,4.5,29.61,WSW,246,6.0,6.0,53,0.00,,,0.00,Wunderground v.1.13,2013-02-18 01:25:00,
2013-02-17 20:35:00,18.7,4.0,29.62,SSW,205,5.0,17.0,52,0.00,,,0.00,Wunderground v.1.13,2013-02-18 01:35:00,
2013-02-17 20:40:00,18.6,3.4,29.62,WNW,288,5.0,5.0,51,0.00,,,0.00,Wunderground v.1.13,2013-02-18 01:40:00,
2013-02-17 20:45:00,18.5,4.2,29.63,SSE,152,6.0,6.0,53,0.00,,,0.00,Wunderground v.1.13,2013-02-18 01:45:00,
2013-02-17 20:50:00,18.3,5.2,29.63,NNW,333,6.0,6.0,56,0.00,,,0.00,Wunderground v.1.13,2013-02-18 01:50:00,
2013-02-17 21:00:00,17.9,3.6,29.64,North,5,3.0,3.0,53,0.00,,,0.00,Wunderground v.1.13,2013-02-18 02:00:00,
2013-02-17 21:05:00,17.8,3.5,29.64,NNE,16,4.0,17.0,53,0.00,,,0.00,Wunderground v.1.13,2013-02-18 02:05:00,
2013-02-17 21:10:00,17.6,3.3,29.64,WNW,288,5.0,5.0,53,0.00,,,0.00,Wunderground v.1.13,2013-02-18 02:10:00,
2013-02-17 21:15:00,17.5,3.7,29.64,NNW,343,4.0,17.0,54,0.00,,,0.00,Wunderground v.1.13,2013-02-18 02:15:00,
2013-02-17 21:25:00,17.1,3.3,29.65,WSW,242,3.0,17.0,54,0.00,,,0.00,Wunderground v.1.13,2013-02-18 02:25:00,
2013-02-17 21:30:00,16.9,3.1,29.65,West,270,3.0,3.0,54,0.00,,,0.00,Wunderground v.1.13,2013-02-18 02:30:00,
2013-02-17 21:35:00,16.8,3.8,29.66,NNW,344,4.0,17.0,56,0.00,,,0.00,Wunderground v.1.13,2013-02-18 02:35:00,
2013-02-17 21:40:00,16.6,3.2,29.66,NW,309,4.0,4.0,55,0.00,,,0.00,Wunderground v.1.13,2013-02-18 02:40:00,
2013-02-17 21:50:00,16.4,3.0,29.66,North,5,5.0,5.0,55,0.00,,,0.00,Wunderground v.1.13,2013-02-18 02:50:00,
2013-02-17 21:55:00,16.2,2.8,29.67,SW,233,6.0,6.0,55,0.00,,,0.00,Wunderground v.1.13,2013-02-18 02:55:00,
2013-02-17 22:00:00,16.1,3.1,29.67,NNW,345,5.0,17.0,56,0.00,,,0.00,Wunderground v.1.13,2013-02-18 03:00:00,
2013-02-17 22:05:00,15.9,3.0,29.67,WNW,282,5.0,5.0,56,0.00,,,0.00,Wunderground v.1.13,2013-02-18 03:05:00,
2013-02-17 22:15:00,15.7,3.1,29.68,North,355,5.0,5.0,57,0.00,,,0.00,Wunderground v.1.13,2013-02-18 03:15:00,
2013-02-17 22:20:00,15.6,2.7,29.69,SW,231,4.0,4.0,56,0.00,,,0.00,Wunderground v.1.13,2013-02-18 03:20:00,
2013-02-17 22:25:00,15.4,2.9,29.69,SW,226,3.0,17.0,57,0.00,,,0.00,Wunderground v.1.13,2013-02-18 03:25:00,
2013-02-17 22:30:00,15.3,2.8,29.69,WNW,287,3.0,3.0,57,0.00,,,0.00,Wunderground v.1.13,2013-02-18 03:30:00,
2013-02-17 22:40:00,15.0,2.9,29.69,West,260,4.0,17.0,58,0.00,,,0.00,Wunderground v.1.13,2013-02-18 03:40:00,
2013-02-17 22:45:00,14.9,2.8,29.70,NNW,333,5.0,5.0,58,0.00,,,0.00,Wunderground v.1.13,2013-02-18 03:45:00,
2013-02-17 22:50:00,14.8,2.7,29.70,North,355,4.0,4.0,58,0.00,,,0.00,Wunderground v.1.13,2013-02-18 03:50:00,
2013-02-17 22:55:00,14.6,2.5,29.71,West,263,3.0,3.0,58,0.00,,,0.00,Wunderground v.1.13,2013-02-18 03:55:00,
2013-02-17 23:00:00,14.5,2.8,29.71,NNW,331,4.0,17.0,59,0.00,,,0.00,Wunderground v.1.13,2013-02-18 04:00:00,
2013-02-17 23:10:00,14.4,2.7,29.72,NNW,343,4.0,17.0,59,0.00,,,0.00,Wunderground v.1.13,2013-02-18 04:10:00,
2013-02-17 23:15:00,14.3,2.6,29.71,WNW,301,6.0,6.0,59,0.00,,,0.00,Wunderground v.1.13,2013-02-18 04:15:00,
2013-02-17 23:20:00,14.3,2.6,29.72,WSW,245,5.0,5.0,59,0.00,,,0.00,Wunderground v.1.13,2013-02-18 04:20:00,
2013-02-17 23:30:00,14.1,2.4,29.72,NW,309,4.0,17.0,59,0.00,,,0.00,Wunderground v.1.13,2013-02-18 04:30:00,
2013-02-17 23:35:00,14.0,2.3,29.72,SSW,202,5.0,17.0,59,0.00,,,0.00,Wunderground v.1.13,2013-02-18 04:35:00,
2013-02-17 23:40:00,13.9,2.2,29.73,North,355,5.0,17.0,59,0.00,,,0.00,Wunderground v.1.13,2013-02-18 04:40:00,
2013-02-17 23:45:00,13.8,2.1,29.73,West,259,5.0,5.0,59,0.00,,,0.00,Wunderground v.1.13,2013-02-18 04:45:00,
2013-02-17 23:55:00,13.6,1.9,29.73,NNW,337,4.0,4.0,59,0.00,,,0.00,Wunderground v.1.13,2013-02-18 04:55:00,